Location: Maignaut
(43.8886°N, 0.4051°E)
Time: 19:30:55
(UTC+00:00)

USA 234 - Pass Details

Date: 17 January 2021
Orbit: 1100 x 1107 km, 123.0° (Epoch: 26 February)

Event Time Altitude Azimuth Distance (km) Brightness Sun altitude
Exits shadow 17:19:01 - 66° (ENE) 3,275 5.0 -5.7°
Reaches altitude 10° 17:19:59 10° 61° (ENE) 2,963 4.8 -5.8°
Maximum altitude 17:25:22 29° 6° (N) 1,918 4.3 -6.7°
Drops below altitude 10° 17:30:46 10° 310° (NW) 2,968 5.9 -7.6°
Sets 17:33:36 0° 299° (WNW) 3,928 6.8 -8.1°
